Punta Gorda, FL

1:03 AM EDT on April 25, 2017 (GMT -0400)
Charlotte County

Weather History for KPGD - December, 2012

Change the Weather History Date:

Monday, December 10, 2012

  Actual Average Record
Temperature  
Mean Temperature 74 °F -  
Max Temperature 86 °F 74 °F 86 °F (2008)
Min Temperature 62 °F 53 °F 41 °F (1996)
Cooling Degree Days 9    
Growing Degree Days 24 (Base 50)    
Moisture  
Dew Point 68 °F    
Average Humidity 87    
Maximum Humidity 100    
Minimum Humidity 61    
Precipitation  
Precipitation 0.11 in - - ()
Sea Level Pressure  
Sea Level Pressure 29.98 in    
Wind  
Wind Speed 4 mph (South)    
Max Wind Speed 18 mph    
Max Gust Speed 25 mph    
Visibility 7 miles    
Events Fog , Rain    
Averages and records for this station are not official NWS values.
T = Trace of Precipitation, MM = Missing Value Source: NWS Daily Summary

Daily Weather History Graph

Daily Weather History Graph

Search for Another Location

Airport or City:

Trip Planner

Search our weather history database for the weather conditions in past years. The results will help you decide how hot, cold, wet, or windy it might be!

Date:

Astronomy

Dec. 10, 2012 Rise Set
Actual Time 7:06 AM EST 5:35 PM EST
Civil Twilight 6:41 AM EST 6:00 PM EST
Nautical Twilight 6:12 AM EST 6:29 PM EST
Astronomical Twilight 5:43 AM EST 6:58 PM EST
Moon 3:58 AM EST (12/10) 3:15 PM EST (12/10)
Length of Visible Light 11h 19m
Length of Day
10h 29m
Waning Crescent, 10% of the Moon is Illuminated
Dec 10
Waning Crescent
Dec 13
New
Dec 20
First Quarter
Dec 28
Full
Jan 4
Last Quarter

Hourly Weather History & Observations

Time (EST) Temp. Heat Index Dew Point Humidity Pressure Visibility Wind Dir Wind Speed Gust Speed Precip Events Conditions
12:53 AM 66.0 °F - 64.0 °F 93% 30.04 in 9.0 mi Calm Calm - N/A   Scattered Clouds
1:53 AM 66.9 °F - 64.9 °F 93% 30.03 in 9.0 mi Calm Calm - N/A   Overcast
2:53 AM 64.0 °F - 63.0 °F 96% 30.01 in 1.8 mi Calm Calm - N/A   Clear
3:19 AM 62.6 °F - 62.6 °F 100% 30.00 in 0.5 mi Calm Calm - N/A Fog Fog
3:53 AM 63.0 °F - 63.0 °F 100% 30.00 in 0.8 mi Calm Calm - N/A   Clear
4:51 AM 62.6 °F - 62.6 °F 100% 29.99 in 0.5 mi Calm Calm - N/A Fog Fog
4:53 AM 63.0 °F - 62.1 °F 97% 29.99 in 0.5 mi Calm Calm - N/A Fog Fog
5:04 AM 62.6 °F - 62.6 °F 100% 29.99 in 0.2 mi Calm Calm - N/A Fog Fog
5:49 AM 62.6 °F - 60.8 °F 94% 29.99 in 0.5 mi Calm Calm - N/A Fog Fog
5:53 AM 62.1 °F - 62.1 °F 100% 30.00 in 0.5 mi Calm Calm - N/A Fog Fog
6:39 AM 62.6 °F - 60.8 °F 94% 30.00 in 1.0 mi Calm Calm - N/A   Clear
6:46 AM 62.6 °F - 62.6 °F 100% 30.00 in 4.0 mi East 3.5 mph - N/A   Clear
7:53 AM 66.0 °F - 64.9 °F 96% 30.02 in 4.0 mi Calm Calm - 0.01 in   Clear
8:26 AM 68.0 °F - 66.2 °F 94% 30.02 in 10.0 mi ESE 3.5 mph - N/A   Scattered Clouds
8:38 AM 71.6 °F - 68.0 °F 88% 30.02 in 10.0 mi SSE 5.8 mph - N/A   Mostly Cloudy
8:50 AM 71.6 °F - 69.8 °F 94% 30.02 in 7.0 mi SSE 6.9 mph - N/A   Overcast
8:53 AM 71.1 °F - 68.0 °F 90% 30.02 in 7.0 mi SSE 8.1 mph - N/A   Overcast
9:53 AM 77.0 °F - 72.0 °F 84% 30.02 in 10.0 mi SSE 9.2 mph - N/A   Scattered Clouds
10:53 AM 84.0 °F 89.6 °F 72.0 °F 67% 29.99 in 10.0 mi SSE 17.3 mph - N/A   Clear
11:53 AM 86.0 °F 91.5 °F 71.1 °F 61% 29.97 in 10.0 mi South 13.8 mph - N/A   Clear
12:53 PM 84.0 °F 89.0 °F 71.1 °F 65% 29.96 in 10.0 mi SSW 13.8 mph - N/A   Overcast
1:53 PM 82.9 °F 87.5 °F 71.1 °F 67% 29.94 in 10.0 mi South 12.7 mph - N/A   Overcast
2:53 PM 82.9 °F 88.8 °F 73.0 °F 72% 29.91 in 10.0 mi South 18.4 mph 25.3 mph N/A   Scattered Clouds
3:31 PM 84.2 °F 90.9 °F 73.4 °F 70% 29.90 in 10.0 mi SSW 16.1 mph - N/A   Mostly Cloudy
3:53 PM 82.0 °F 86.7 °F 72.0 °F 71% 29.92 in 10.0 mi SSW 12.7 mph 21.9 mph N/A   Mostly Cloudy
4:14 PM 80.6 °F 84.6 °F 71.6 °F 74% 29.92 in 10.0 mi SSW 16.1 mph 23.0 mph N/A   Overcast
4:53 PM 80.1 °F 84.2 °F 73.0 °F 79% 29.92 in 10.0 mi South 15.0 mph - N/A   Overcast
5:53 PM 78.1 °F - 73.0 °F 84% 29.91 in 10.0 mi South 10.4 mph - N/A   Mostly Cloudy
6:53 PM 77.0 °F - 73.0 °F 88% 29.94 in 10.0 mi South 12.7 mph - N/A   Scattered Clouds
7:53 PM 77.0 °F - 73.0 °F 88% 29.95 in 10.0 mi South 12.7 mph - N/A   Clear
8:53 PM 75.9 °F - 73.0 °F 91% 29.97 in 10.0 mi SSW 9.2 mph - N/A   Mostly Cloudy
9:53 PM 77.0 °F - 73.0 °F 88% 29.96 in 10.0 mi South 9.2 mph - N/A   Overcast
10:53 PM 75.9 °F - 73.0 °F 91% 29.96 in 10.0 mi South 11.5 mph - N/A   Mostly Cloudy
11:53 PM 75.9 °F - 73.0 °F 91% 29.96 in 7.0 mi SW 8.1 mph - 0.10 in Rain Light Rain